Weather History for Jersey, United Kingdom

Change the Weather History Date:

Tuesday, February 5, 2013

  Actual Average Record
Temperature  
Mean Temperature 42 °F -  
Max Temperature 46 °F 46 °F 53 °F (2004)
Min Temperature 38 °F 39 °F 35 °F (2003)
Degree Days  
Heating Degree Days 23    
Moisture  
Dew Point 36 °F    
Average Humidity 77    
Maximum Humidity 93    
Minimum Humidity 54    
Precipitation  
Precipitation 0.00 in - - ()
Sea Level Pressure  
Sea Level Pressure 29.74 in    
Wind  
Wind Speed 24 mph ()    
Max Wind Speed 33 mph    
Max Gust Speed 61 mph    
Visibility 6.9 miles    
Events Rain , Snow    
Averages and records for this station are not official NWS values.
T = Trace of Precipitation, MM = Missing Value Source: Averaged Metar Reports

Daily Weather History Graph

Daily Weather History Graph

Search for Another Location

Airport:

Trip Planner

Search our weather history database for the weather conditions in past years. The results will help you decide how hot, cold, wet, or windy it might be!

Date:

Astronomy

Feb. 05, 2013 Rise Set
Actual Time 7:33 AM GMT 5:12 PM GMT
Civil Twilight 7:00 AM GMT 5:46 PM GMT
Nautical Twilight 6:22 AM GMT 6:23 PM GMT
Astronomical Twilight 5:45 AM GMT 7:00 PM GMT
Moon 3:09 AM GMT (2/5) 12:05 PM GMT (2/5)
Length of Visible Light 10h 45m
Length of Day
9h 38m
Waning Crescent, 29% of the Moon is Illuminated
Feb 5
Waning Crescent
Feb 10
New
Feb 17
First Quarter
Feb 25
Full
Mar 4
Last Quarter

Hourly Weather History & Observations

Time (GMT) Temp. Windchill Dew Point Humidity Pressure Visibility Wind Dir Wind Speed Gust Speed Precip Events Conditions
12:00 AM 46 °F - 42 °F 80% 30.03 in 7 mi West 26.5 mph - - Rain Light Rain Showers
3:50 AM 44.6 °F 35.5 °F 41.0 °F 87% 29.86 in 6.2 mi WNW 25.3 mph 51.8 mph N/A   Scattered Clouds
4:20 AM 41.0 °F 30.0 °F 37.4 °F 87% 29.86 in 6.2 mi WNW 28.8 mph 61.0 mph N/A   Mostly Cloudy
4:50 AM 41.0 °F 30.5 °F 35.6 °F 81% 29.86 in 5.0 mi WNW 26.5 mph 54.1 mph N/A Rain Light Rain Showers
5:20 AM 39.2 °F 28.7 °F 37.4 °F 93% 29.86 in 6.2 mi WNW 23.0 mph - N/A   Mostly Cloudy
5:50 AM 39.2 °F 27.8 °F 37.4 °F 93% 29.83 in 6.2 mi WNW 27.6 mph - N/A   Scattered Clouds
6:00 AM 40 °F - 36 °F 82% 29.86 in 9 mi NW 19.6 mph - - Rain Light Rain Showers
6:20 AM 41.0 °F 30.2 °F 35.6 °F 81% 29.83 in 6.2 mi WNW 27.6 mph - N/A   Mostly Cloudy
6:50 AM 41.0 °F 30.9 °F 37.4 °F 87% 29.83 in 6.2 mi WNW 24.2 mph - N/A Rain Light Rain Showers
7:20 AM 41.0 °F 31.6 °F 35.6 °F 81% 29.83 in 6.2 mi WNW 20.7 mph - N/A Rain Light Rain Showers
7:50 AM 41.0 °F 30.2 °F 35.6 °F 81% 29.80 in 6.2 mi WNW 27.6 mph - N/A   Mostly Cloudy
8:20 AM 41.0 °F 31.6 °F 35.6 °F 81% 29.80 in 6.2 mi West 20.7 mph 35.7 mph N/A Rain Light Rain Showers
8:50 AM 42.8 °F 32.9 °F 33.8 °F 70% 29.80 in 6.2 mi WNW 26.5 mph - N/A   Mostly Cloudy
9:00 AM 43 °F - 35 °F 66% 29.81 in 16 mi WNW 29.9 mph - - Rain Light Rain Showers
9:20 AM 42.8 °F 32.9 °F 33.8 °F 70% 29.77 in 6.2 mi West 26.5 mph 38.0 mph N/A   Scattered Clouds
9:50 AM 42.8 °F 32.7 °F 35.6 °F 76% 29.77 in 6.2 mi West 27.6 mph - N/A   Mostly Cloudy
10:20 AM 42.8 °F 34.0 °F 33.8 °F 70% 29.77 in 6.2 mi WNW 20.7 mph 40.3 mph N/A   Mostly Cloudy
10:50 AM 42.8 °F 33.5 °F 35.6 °F 76% 29.77 in 6.2 mi NW 23.0 mph - N/A   Mostly Cloudy
11:20 AM 41.0 °F 30.9 °F 32.0 °F 70% 29.77 in 6.2 mi WNW 24.2 mph 39.1 mph N/A   Mostly Cloudy
11:50 AM 41.0 °F 31.9 °F 35.6 °F 81% 29.74 in 6.2 mi WNW 19.6 mph - N/A   Partly Cloudy
12:00 PM 42 °F - 35 °F 68% 29.74 in 22 mi WNW 25.3 mph - - Snow Light Snow Showers
12:20 PM 42.8 °F 34.0 °F 35.6 °F 76% 29.74 in 6.2 mi WNW 20.7 mph - N/A   Scattered Clouds
12:50 PM 42.8 °F 33.5 °F 32.0 °F 66% 29.71 in 6.2 mi WNW 23.0 mph - N/A   Scattered Clouds
1:20 PM 42.8 °F 32.9 °F 35.6 °F 76% 29.71 in 6.2 mi West 26.5 mph - N/A   Scattered Clouds
1:50 PM 42.8 °F 32.5 °F 33.8 °F 70% 29.68 in 6.2 mi West 28.8 mph 41.4 mph N/A   Mostly Cloudy
2:20 PM 44.6 °F 35.1 °F 35.6 °F 71% 29.68 in 6.2 mi WNW 27.6 mph - N/A   Mostly Cloudy
2:50 PM 42.8 °F 31.9 °F 32.0 °F 66% 29.68 in 6.2 mi WNW 32.2 mph - N/A Rain Light Rain Showers
3:00 PM 43 °F - 32 °F 54% 29.71 in 4 mi WNW 32.2 mph - - Rain Light Rain Showers
3:20 PM 41.0 °F 31.9 °F 35.6 °F 81% 29.68 in 6.2 mi WNW 19.6 mph - N/A   Scattered Clouds
3:50 PM 39.2 °F 28.3 °F 35.6 °F 87% 29.68 in 6.2 mi NW 25.3 mph - N/A   Mostly Cloudy
4:20 PM 41.0 °F 29.3 °F 35.6 °F 81% 29.68 in 6.2 mi WNW 33.4 mph - N/A Rain Light Rain Showers
4:50 PM 42.8 °F 31.8 °F 33.8 °F 70% 29.68 in 6.2 mi WNW 33.4 mph - N/A   Partly Cloudy
5:20 PM 42.8 °F 33.5 °F 33.8 °F 70% 29.68 in 6.2 mi WNW 23.0 mph 39.1 mph N/A   Scattered Clouds
5:50 PM 44.6 °F 34.9 °F 37.4 °F 76% 29.68 in 6.2 mi WNW 28.8 mph - N/A   Mostly Cloudy
6:00 PM 44 °F - 36 °F 64% 29.70 in 19 mi WNW 31.1 mph - - Rain Light Rain Showers
6:20 PM 42.8 °F 32.7 °F 35.6 °F 76% 29.65 in 6.2 mi West 27.6 mph - N/A   Scattered Clouds
6:50 PM 44.6 °F 35.1 °F 35.6 °F 71% 29.65 in 6.2 mi West 27.6 mph - N/A   Scattered Clouds
7:20 PM 44.6 °F 35.3 °F 39.2 °F 81% 29.62 in 6.2 mi West 26.5 mph - N/A   Mostly Cloudy
7:50 PM 44.6 °F 36.4 °F 41.0 °F 87% 29.62 in 6.2 mi WNW 20.7 mph - N/A Rain Light Rain Showers
8:20 PM 44.6 °F 35.9 °F 41.0 °F 87% 29.59 in 6.2 mi West 23.0 mph 42.6 mph N/A   Mostly Cloudy
8:50 PM 44.6 °F 35.5 °F 39.2 °F 81% 29.59 in 6.2 mi WNW 25.3 mph 41.4 mph N/A   Mostly Cloudy
9:00 PM 44 °F - 40 °F 83% 29.62 in 12 mi WNW 26.5 mph - - Rain Light Rain Showers
9:20 PM 44.6 °F 34.7 °F 41.0 °F 87% 29.59 in 6.2 mi WNW 29.9 mph - N/A   Mostly Cloudy